AirNav  
 
 517 users online  

26NC Boonville Airport
Boonville, North Carolina, USA

GOING TO BOONVILLE?


FAA INFORMATION EFFECTIVE 12 OCTOBER 2017

Location

FAA Identifier: 26NC
Lat/Long: 36-13-22.4890N / 080-42-56.2360W
36-13.374817N / 080-42.937267W
36.2229136 / -80.7156211
(estimated)
Elevation: 1003 ft. / 306 m (estimated)
Variation: 06W (1985)
From city: 1 mile SW of BOONVILLE, NC
Time zone: UTC -4 (UTC -5 during Standard Time)
Zip code: 27011

Airport Operations

Airport use: Private use. Permission required prior to landing
Activation date: 10/1963
Control tower: no
ARTCC: ATLANTA CENTER
FSS: RALEIGH FLIGHT SERVICE STATION
Attendance: UNATNDD
Wind indicator: yes
Segmented circle: no

Airport Communications

WX AWOS-3 at MWK (16 nm NE): 121.125 (336-789-2299)
WX AWOS-3 at UKF (19 nm W): 126.625 (336-696-3788)

Nearby radio navigation aids

VOR radial/distance  VOR name  Freq  Var
BZMr056/33.2BARRETTS MOUNTAIN VOR/DME110.8006W
GSOr290/37.4GREENSBORO VORTAC116.2003W

 
NDB name  Hdg/Dist  Freq  Var  ID
ZEPHYR182/5.332608WZEF --.. . ..-.
ASHEE120/31.941007WJUH .--- ..- ....

Airport Services

Airframe service: NONE
Powerplant service: NONE
Bottled oxygen: NONE
Bulk oxygen: NONE

Runway Information

Runway 1/19

Dimensions: 1500 x 50 ft. / 457 x 15 m
Surface: turf, in good condition
RUNWAY 1  RUNWAY 19
Traffic pattern: leftleft
Obstructions: 15 ft. road, 30 ft. left of centerline15 ft. road, 30 ft. right of centerline

Airport Ownership and Management from official FAA records

Ownership: Privately-owned
Owner: HARVEY & DANIEL SMITH
3901 BAPTIST CHURCH RD
BOONVILLE, NC 27011-7812
Phone (336) 466-2017
Manager: HARVEY & DANIEL SMITH
234 BAPTIST CHURCH RD
BOONVILLE, NC 27011-8618
Phone 336-367-7365

Airport Operational Statistics

Aircraft based on the field: 4
Single engine airplanes: 4
    
Aircraft operations: avg 29/week *
67% local general aviation
33% transient general aviation
* for 12-month period ending 29 February 1996

Additional Remarks

WHITE REFLECTORS LCTD ON EAST SIDE OF RWY ONLY INDICATING RWY EDGE.
RWY 1 UPHILL LANDING.
3 FT DITCH AT BOTH ENDS OF RY; GREATER THAN 25 FT BLDGS 40 FT EAST SIDE OF RY.
DEPARTURES TO THE SOUTH - LANDINGS TO THE NORTH DUE TO OBSTRUCTIONS AND SLOPING RY.

Instrument Procedures

There are no published instrument procedures at 26NC.

Some nearby airports with instrument procedures:

KZEF - Elkin Municipal Airport (5 nm NW)
KMWK - Mount Airy/Surry County Airport (16 nm NE)
KUKF - Wilkes County Airport (19 nm W)
8A7 - Twin Lakes Airport (22 nm SE)
KINT - Smith Reynolds Airport (24 nm E)
 
Loc | Ops | Rwys | IFR | FBO | Links
Com | Nav | Svcs | Stats | Notes


 
Area around 26NC (Boonville Airport)
 
Road maps at: MapQuest Bing Google
 
Aerial photo
No photo
 
Sectional chart

 
Airport distance calculator
Flying to Boonville Airport? Find the distance to fly.

From to 26NC

Sunrise and sunset
Times for 20-Oct-2017
 Local
(UTC-4)
 Zulu
(UTC)
Morning civil twilight07:0911:09
Sunrise07:3511:35
Sunset18:4022:40
Evening civil twilight19:0623:06

Current date and time
Zulu (UTC)  20-Oct-2017 11:15:06
Local (UTC-4)  20-Oct-2017 07:15:06
 
METAR
KMWK 
17nm NE 
201045Z AUTO 32009KT 10SM CLR 14/07 A3029 RMK AO2 T01410069
KUKF 
19nm W 
201100Z AUTO 00000KT 10SM CLR 05/05 A3032 RMK AO2
KINT 
25nm E 
201054Z 34003KT 10SM CLR 11/06 A3026 RMK AO2 SLP244 T01060061
KSVH 
31nm S 
201045Z AUTO 00000KT 10SM CLR 06/04 A3025 RMK AO2 T00550041
KHLX 
33nm N 
201055Z AUTO 00000KT 10SM CLR 10/02 A3030 RMK AO2 T01000020
KEXX 
33nm SE 
201040Z AUTO 00000KT 7SM CLR 05/05 A3025 RMK AO2 T00490049
TAF
KINT 
25nm E 
200532Z 2006/2106 VRB02KT P6SM FEW250
NOTAMs
Click for the latest NOTAMs
NOTAMs are issued by the DoD/FAA and will open in a separate window not controlled by AirNav.

 

 
 

Would you like to see your business listed on this page?

 If your business provides an interesting product or service to pilots, flight crews, aircraft, or users of the Boonville Airport, you should consider listing it here.  To start the listing process, click on the button below
 
Add a business
 

Other Pages about Boonville Airport

Update a link
 
Copyright © AirNav, LLC. All rights reserved. Privacy Policy  Contact